Flag for South Africa Weather past 2 weeks in Port Elizabeth, South Africa

Now
66 °F

Partly sunny.


Feels Like: 66 °F
Forecast: 54 / 71 °F
Wind: 14 mph from West

Location: Port Elizabeth Airport

Current Time: Apr 27, 2015 at 10:14:56 AM

Latest Report: Apr 27, 2015 at 9:00 AM


Visibility: N/A

Pressure: 30.12 "Hg

Humidity: 68%

Dew point: 55 °F

Location of Port ElizabethLocation

Historic Weather in Port Elizabeth — Graph

°F

Port Elizabeth temperature yesterday

Maximum temperature yesterday: 70 °F (at 10:00 AM)
Minimum temperature yesterday: 61 °F (at 9:00 PM)
Average temperature yesterday: 65 °F

Past Weeks' High & Low Weather Summary

 TemperatureHumidityPressure
High81 °F (Apr 13, 1:00 PM)94% (Apr 13, 1:00 AM)30.42 "Hg (Apr 13, 1:00 AM)
Low50 °F (Apr 16, 4:55 AM)47% (Apr 12, 2:00 PM)29.92 "Hg (Apr 13, 3:00 PM)
Average62 °F78%30.11 "Hg
* Reported Apr 12 9:00 AM — Apr 27 9:00 AM, Port Elizabeth, Weather by CustomWeather, © 2015

Note: Actual official high and low records may vary slightly from our data, if they occured in-between our weather recording intervals... More about our weather records

Advertising

Port Elizabeth weather history for previous 24 hours

 ConditionsComfort  
Time TempWeatherWind HumidityBarometerVisibility
9:00 AM
Mon, Apr 27
66 °FPartly sunny.14 mph68%30.12 "HgN/A
8:00 AM63 °FPartly sunny.18 mph73%30.12 "HgN/A
7:00 AM61 °FPartly sunny.14 mph77%30.09 "HgN/A
6:00 AM61 °FSunny.18 mph77%30.09 "Hg10 mi
5:00 AM59 °FPassing clouds.14 mph82%30.09 "HgN/A
4:00 AM61 °FPassing clouds.16 mph77%30.09 "HgN/A
3:00 AM61 °FClear.13 mph77%30.09 "Hg10 mi
2:00 AM63 °FClear.13 mph68%30.09 "Hg10 mi
1:00 AM63 °FClear.15 mph73%30.09 "Hg10 mi
12:00 AM63 °FClear.15 mph73%30.09 "Hg10 mi
11:00 PM
Sun, Apr 26
61 °FClear.14 mph77%30.12 "Hg10 mi
10:00 PM61 °FClear.15 mph77%30.09 "Hg10 mi
9:00 PM61 °FClear.18 mph83%30.09 "Hg10 mi
8:00 PM63 °FClear.9 mph77%30.09 "Hg10 mi
7:00 PM63 °FClear.16 mph77%30.09 "Hg10 mi
6:00 PM64 °FClear.20 mph78%30.07 "Hg10 mi
5:00 PM64 °FPassing clouds.25 mph78%30.07 "HgN/A
4:00 PM68 °FSunny.29 mph69%30.07 "Hg10 mi
2:00 PM68 °FScattered clouds.24 mph73%30.07 "HgN/A
1:00 PM70 °FScattered clouds.26 mph73%30.09 "HgN/A
12:00 PM70 °FPartly sunny.28 mph69%30.09 "HgN/A
11:00 AM70 °FScattered clouds.26 mph69%30.09 "HgN/A
10:00 AM70 °FPassing clouds.20 mph69%30.09 "HgN/A
Weather by CustomWeather, © 2015

See weather overviewHow to use our weather pages